Wind_Speed
30 30 32 33 34 34 32 30 28 28 30 32 34 35 34 34 33 33 32 31 31 31 31 30 29 29 29 28 28 27 26 25 24 23 22 21 20 19 17 16 15 14 13 12 10 9 8 8 8
32 33 34 35 37 36 34 32 31 31 34 35 37 37 37 36 35 34 33 32 33 33 33 32 32 31 30 30 30 29 28 28 27 25 24 23 21 20 19 18 17 15 14 13 12 11 10 9 9
35 36 37 39 39 38 37 36 35 35 37 38 39 40 40 38 37 36 36 35 35 35 35 34 34 33 32 32 31 31 30 30 29 27 26 25 23 22 21 19 18 16 15 14 13 12 11 11 10
38 40 41 42 41 39 39 39 38 39 40 41 43 43 42 41 40 39 39 38 37 37 37 36 35 35 35 34 33 33 32 31 30 29 28 27 25 24 23 21 20 18 17 16 14 14 13 12 12
41 42 44 44 43 41 41 42 41 42 43 44 45 46 45 44 43 41 41 41 40 40 39 38 37 37 37 36 36 35 34 33 32 31 30 28 27 26 24 23 21 20 18 17 16 15 14 13 13
44 44 46 46 44 43 44 44 45 45 46 46 47 48 47 46 45 44 44 43 43 42 42 41 39 38 38 38 38 37 36 35 34 33 32 30 29 27 26 24 23 21 20 19 18 17 16 15 14
46 47 47 48 47 46 46 47 48 48 49 48 50 51 49 48 48 47 46 46 45 45 44 43 42 41 40 40 39 39 38 37 36 34 33 32 31 29 27 26 24 23 21 20 19 18 17 16 15
47 49 49 48 49 48 48 49 50 50 51 51 52 53 51 50 50 49 49 48 47 47 46 45 45 44 43 42 41 41 40 39 38 36 35 34 32 31 29 27 26 24 23 21 20 19 18 17 16
48 51 51 49 50 49 50 52 51 51 52 53 54 54 54 53 52 51 51 50 49 49 48 47 46 46 45 44 43 43 42 41 39 38 37 35 34 32 31 29 27 26 24 23 21 20 19 18 17
49 52 51 51 52 51 51 53 53 53 53 54 55 56 56 55 54 53 52 52 51 50 50 49 48 48 47 46 45 44 44 43 41 40 39 37 35 33 32 30 29 27 25 24 23 21 20 19 18
48 50 50 51 52 53 52 53 54 55 54 54 56 57 57 57 56 55 54 54 53 52 51 51 50 50 49 48 47 46 45 44 43 41 40 38 37 35 33 31 30 29 27 25 24 23 21 20 19
48 48 49 50 52 53 54 53 53 55 54 55 57 58 58 58 57 57 56 56 56 55 53 53 52 52 51 50 49 48 46 45 44 43 41 40 38 36 35 33 31 30 28 26 25 24 23 22 20
47 47 49 50 51 52 54 53 53 53 54 55 56 57 58 59 58 58 58 58 58 57 56 55 54 54 53 52 50 49 47 46 45 44 42 41 39 38 36 34 33 31 29 28 26 25 24 23 22
45 46 48 48 49 50 52 51 51 50 51 54 55 56 57 58 58 59 59 59 59 59 58 57 56 55 54 53 52 50 48 47 46 45 44 42 41 39 38 36 34 32 30 29 28 26 25 24 23
45 46 46 45 46 46 50 50 48 47 49 51 53 54 55 57 58 59 59 60 60 61 60 58 58 57 55 54 53 52 50 48 47 46 45 44 42 40 39 38 36 34 32 30 29 27 26 25 24
44 45 45 42 43 43 47 47 44 45 47 49 50 52 53 54 56 58 59 60 61 62 61 59 58 57 56 55 54 53 51 49 48 47 45 44 43 41 40 39 37 35 33 31 30 28 27 26 24
44 44 43 41 40 42 45 44 41 43 45 47 48 50 52 53 55 57 58 60 61 62 61 60 59 58 57 56 55 53 52 50 49 48 46 44 43 42 40 39 38 36 34 32 31 29 28 27 26
42 42 41 40 39 41 43 42 39 41 43 44 46 48 51 52 53 56 57 59 61 63 62 60 60 58 58 57 56 54 53 51 50 48 47 45 44 43 42 40 38 36 35 33 32 30 29 28 26
41 41 40 38 39 41 41 40 39 39 41 42 44 46 49 50 52 56 57 59 60 62 62 61 60 59 58 58 56 55 53 52 51 50 48 46 45 44 42 40 39 37 35 34 33 31 30 28 27
39 39 39 37 37 40 40 38 37 37 39 41 42 44 46 48 51 55 57 58 60 61 62 62 60 60 59 57 56 55 54 53 52 51 49 47 46 45 43 41 39 38 36 35 33 32 30 29 28
38 38 38 37 36 37 39 37 35 35 36 38 40 41 43 46 49 53 55 57 59 61 62 62 60 60 59 57 56 55 55 54 53 52 50 48 46 45 44 42 41 39 37 36 34 33 32 30 30
37 37 36 36 37 37 36 37 33 33 35 36 37 39 42 45 47 50 53 57 59 60 62 62 61 60 59 57 56 55 55 53 52 51 50 49 48 46 45 44 42 40 38 36 35 35 33 32 31
37 37 35 34 36 36 34 37 30 30 32 34 36 37 40 43 46 48 50 55 59 60 62 62 61 61 59 58 56 55 54 53 53 52 51 50 48 47 46 44 43 41 39 38 36 35 34 33 32
36 36 35 34 34 34 32 34 31 27 29 31 34 35 38 42 45 47 49 54 59 61 61 63 62 60 60 58 57 55 54 53 53 52 52 50 49 48 47 45 44 42 40 39 38 36 35 34 34
33 33 34 34 33 33 31 33 29 26 26 28 31 34 37 40 44 46 49 53 58 61 61 63 61 60 60 58 57 55 54 54 54 53 52 51 49 48 47 45 44 43 41 40 39 38 37 36 35
32 30 31 32 32 32 32 32 28 25 25 26 29 33 36 39 43 45 49 52 57 60 61 62 63 61 60 58 57 56 55 55 54 53 52 51 49 48 47 46 45 44 43 41 40 39 38 37 36
33 30 29 31 31 31 31 30 26 23 25 26 28 31 35 38 41 44 48 52 56 59 61 61 62 61 60 60 58 56 54 54 54 53 52 50 50 49 48 47 46 45 44 41 40 39 38 37 36
32 31 30 30 31 31 29 28 26 23 23 26 28 30 33 36 39 43 48 52 57 59 61 61 62 61 59 60 59 56 54 53 52 53 52 50 50 48 48 47 46 45 44 42 40 40 39 38 37
32 31 30 31 30 31 31 29 24 22 23 25 27 29 32 35 37 41 46 52 56 59 60 61 62 61 61 60 59 58 56 55 53 53 52 50 50 48 48 47 47 45 44 43 41 40 39 38 37
32 30 30 31 31 32 33 30 24 23 23 25 27 30 32 34 37 40 44 50 54 57 60 61 61 62 62 61 60 58 56 56 55 54 52 51 50 48 47 47 46 45 44 43 41 40 40 39 38
Wind_Direction
274 273 271 269 267 267 267 266 264 260 256 254 252 251 251 249 247 246 244 239 238 236 234 232 231 230 230 228 227 226 226 225 224 224 224 225 225 226 227 227 227 229 233 237 242 250 258 268 276
275 273 270 268 267 268 269 268 264 260 257 254 252 251 249 248 246 245 244 240 237 237 235 232 230 230 229 228 226 226 226 226 226 226 226 227 227 228 228 229 229 230 233 238 243 249 258 269 275
275 272 271 269 268 269 270 268 265 261 258 255 253 251 250 248 246 244 242 240 236 235 234 233 231 230 228 227 226 227 227 227 227 227 227 228 229 230 230 230 230 231 234 239 244 249 260 267 272
274 272 271 270 270 269 268 266 263 261 258 256 254 251 249 247 245 243 241 239 236 234 233 232 231 230 228 227 226 227 227 228 228 228 228 228 230 231 231 231 230 232 236 240 245 251 260 264 269
272 271 270 270 271 269 267 265 263 260 258 256 254 252 249 246 244 242 239 238 236 234 232 232 231 231 229 228 227 227 227 228 228 229 229 229 230 231 232 231 231 233 236 240 246 252 259 263 266
271 271 271 270 271 270 268 266 262 259 257 255 253 252 249 246 243 241 239 237 235 233 232 231 230 230 230 229 227 227 227 228 229 229 230 230 230 231 232 232 232 234 237 242 247 252 258 262 264
271 270 271 272 270 270 268 265 262 259 257 255 253 251 248 245 243 240 238 236 234 233 231 230 230 230 229 229 228 227 227 228 229 230 230 231 231 231 232 232 232 234 238 242 247 251 256 260 262
273 272 271 272 272 269 268 265 262 259 256 253 252 250 247 245 243 240 237 235 233 232 231 230 229 229 229 229 228 227 227 227 228 229 230 230 231 231 231 232 233 235 238 242 246 250 254 257 261
275 273 272 272 272 270 267 265 262 259 255 252 250 249 247 244 242 240 237 234 233 232 230 229 229 228 228 229 228 228 227 227 227 228 229 230 230 230 231 232 233 235 238 242 246 250 252 256 260
276 275 275 273 271 270 267 264 261 257 254 251 249 248 246 244 241 240 238 234 232 231 230 228 228 228 227 228 228 228 227 227 227 228 229 230 230 230 230 232 234 236 238 241 245 248 252 257 261
278 277 276 274 272 270 268 264 260 257 254 250 248 247 245 244 241 238 236 234 230 229 228 227 227 226 226 227 227 227 227 227 227 227 228 230 230 230 231 232 234 236 237 240 243 248 252 256 261
281 279 278 275 273 270 268 265 261 257 254 250 248 246 244 243 240 237 235 233 230 227 226 226 225 225 225 226 227 227 227 227 226 226 228 229 230 230 231 232 234 236 237 239 243 247 251 256 260
283 282 279 277 275 271 268 266 262 258 254 251 248 246 243 241 238 235 232 230 228 226 225 225 225 224 224 225 225 226 226 226 226 226 227 229 229 230 231 232 233 235 237 239 243 247 251 255 259
287 284 281 278 275 272 270 266 263 259 255 251 248 245 242 239 236 234 231 229 227 225 224 224 224 223 223 224 224 225 225 225 225 226 226 228 228 229 231 232 233 235 237 239 243 246 250 253 258
290 288 284 279 276 273 270 266 264 260 254 251 248 244 241 238 235 233 230 228 226 224 223 223 223 223 222 223 223 224 224 225 225 226 226 227 227 228 229 231 233 235 237 240 243 246 249 253 257
293 290 286 282 276 272 269 267 264 260 254 251 247 243 240 237 234 231 229 227 225 223 222 222 222 222 221 222 222 223 223 224 224 224 226 226 227 227 228 230 232 235 237 239 242 245 248 252 255
294 291 289 284 277 272 269 268 263 259 255 250 246 242 238 235 232 230 228 226 224 223 221 220 221 221 221 221 221 222 223 222 223 224 224 225 226 226 227 229 231 234 236 238 241 245 248 251 255
297 294 291 285 279 274 271 268 264 260 256 251 246 241 237 233 230 228 227 225 223 222 221 219 220 220 220 220 221 222 222 222 222 222 223 224 225 226 227 229 230 233 235 237 241 244 247 251 255
298 295 293 287 280 276 273 270 265 260 256 251 245 241 237 233 229 227 225 224 222 221 219 218 218 218 219 219 220 221 222 223 223 222 222 223 224 225 226 228 230 232 235 237 240 243 246 251 255
298 295 292 287 281 278 275 270 266 261 257 251 246 241 236 232 229 226 224 222 221 220 218 217 217 217 218 218 220 221 222 222 223 223 222 222 224 224 225 228 230 231 234 237 240 243 246 250 254
298 295 292 288 284 281 278 272 267 261 256 250 246 241 235 231 229 226 223 221 219 219 217 217 216 216 216 218 220 220 221 222 223 223 223 223 223 224 225 228 229 231 233 236 240 243 247 250 254
298 294 292 288 285 284 280 276 269 263 255 250 245 240 234 230 228 226 222 219 218 217 216 216 215 215 216 217 219 220 221 222 223 223 223 224 224 225 226 228 230 232 233 236 239 243 247 250 254
298 295 292 288 285 284 281 278 273 266 256 249 244 240 234 231 228 225 222 218 217 216 215 215 215 214 215 217 218 219 219 221 222 223 223 224 225 225 226 227 229 232 234 236 240 244 246 250 254
300 296 293 288 285 284 283 278 275 269 260 251 244 240 234 230 227 223 221 218 216 215 215 214 215 214 215 216 217 218 219 220 221 222 223 223 224 226 227 228 230 232 235 237 241 244 247 250 254
303 300 297 293 288 286 284 278 276 270 259 252 244 239 234 230 226 222 220 217 215 214 215 214 214 214 214 214 216 217 218 219 221 223 223 223 224 226 228 229 231 233 235 238 241 244 247 250 254
305 301 297 293 291 290 283 279 276 271 259 251 245 240 236 230 225 223 220 217 215 214 214 215 215 214 214 214 215 217 218 219 221 222 223 224 224 226 228 229 232 233 235 239 242 244 247 250 254
303 299 295 291 290 288 284 279 274 269 260 252 246 241 236 231 227 222 219 217 215 215 214 215 216 215 214 214 215 216 217 219 220 222 222 223 224 225 228 230 232 234 236 239 241 244 247 250 254
300 298 293 290 288 286 284 281 278 269 260 251 246 241 234 230 227 224 221 217 216 215 214 214 215 215 214 215 216 217 218 219 220 221 222 223 224 225 227 231 233 234 237 239 241 244 247 250 254
299 295 291 286 283 283 284 282 278 273 263 253 246 239 233 228 226 225 223 219 218 216 215 213 214 214 215 215 216 217 219 219 220 221 222 223 223 226 228 231 233 235 237 239 242 244 247 250 254
297 294 289 284 281 279 279 278 277 272 263 253 245 238 233 229 227 225 224 220 218 217 216 214 215 216 216 217 216 217 218 219 221 222 223 224 225 226 228 231 234 235 237 239 243 246 248 251 254
Height
5817 5817 5817 5817 5818 5818 5819 5822 5825 5826 5825 5826 5826 5827 5829 5831 5834 5837 5838 5839 5840 5842 5844 5846 5849 5851 5853 5855 5858 5860 5861 5863 5865 5866 5867 5868 5869 5870 5871 5872 5872 5872 5872 5872 5872 5872 5872 5871 5871
5810 5810 5810 5809 5809 5810 5813 5816 5817 5818 5818 5818 5818 5820 5822 5824 5826 5828 5830 5832 5834 5836 5838 5841 5843 5846 5848 5851 5853 5855 5857 5859 5861 5863 5864 5866 5867 5867 5868 5869 5869 5870 5870 5870 5870 5870 5870 5869 5869
5801 5801 5801 5800 5801 5804 5806 5808 5809 5809 5809 5810 5810 5811 5813 5817 5819 5821 5823 5825 5828 5830 5832 5835 5838 5840 5843 5846 5848 5851 5853 5855 5857 5859 5861 5862 5863 5864 5865 5866 5867 5867 5868 5868 5868 5868 5868 5867 5867
5793 5792 5791 5792 5793 5796 5798 5798 5799 5799 5800 5800 5801 5802 5806 5809 5811 5813 5815 5817 5820 5823 5825 5829 5832 5834 5837 5840 5843 5845 5848 5850 5853 5855 5857 5858 5860 5861 5862 5863 5864 5864 5865 5865 5865 5865 5865 5865 5865
5782 5781 5780 5781 5784 5787 5787 5788 5788 5789 5789 5790 5791 5793 5796 5799 5801 5804 5807 5809 5812 5815 5818 5822 5825 5828 5831 5834 5837 5840 5843 5845 5848 5850 5852 5854 5856 5857 5858 5860 5860 5861 5862 5862 5863 5863 5863 5863 5862
5771 5770 5770 5770 5773 5776 5776 5777 5777 5777 5778 5779 5780 5782 5786 5788 5791 5794 5798 5800 5804 5807 5811 5814 5818 5821 5824 5828 5831 5834 5837 5840 5842 5845 5847 5849 5851 5853 5854 5856 5857 5858 5859 5859 5859 5860 5860 5860 5860
5760 5759 5758 5760 5761 5764 5764 5764 5764 5765 5766 5767 5767 5770 5775 5777 5780 5784 5787 5791 5795 5799 5802 5806 5810 5814 5817 5821 5824 5827 5830 5834 5837 5839 5842 5844 5846 5848 5850 5852 5853 5854 5855 5856 5856 5857 5857 5857 5857
5747 5746 5746 5747 5748 5751 5751 5750 5751 5752 5753 5754 5754 5758 5763 5766 5769 5773 5777 5781 5785 5789 5794 5798 5802 5806 5809 5813 5817 5820 5824 5827 5830 5834 5836 5839 5841 5843 5845 5847 5849 5850 5851 5852 5852 5853 5853 5853 5853
5733 5733 5733 5735 5735 5737 5737 5736 5737 5737 5739 5740 5742 5745 5749 5753 5757 5761 5766 5770 5775 5780 5784 5789 5793 5798 5802 5805 5809 5813 5816 5820 5824 5827 5830 5833 5835 5838 5840 5843 5844 5846 5847 5848 5849 5849 5850 5850 5850
5719 5718 5721 5722 5720 5720 5720 5720 5722 5722 5724 5727 5729 5732 5734 5739 5744 5749 5754 5759 5764 5769 5774 5779 5784 5789 5793 5797 5801 5805 5809 5813 5817 5820 5823 5827 5830 5832 5835 5837 5839 5841 5843 5844 5845 5845 5846 5846 5846
5706 5706 5707 5706 5704 5703 5703 5704 5705 5705 5710 5713 5715 5718 5720 5725 5730 5736 5742 5747 5752 5758 5763 5769 5774 5779 5784 5788 5793 5797 5801 5805 5809 5813 5817 5820 5823 5827 5829 5832 5834 5836 5838 5839 5840 5841 5842 5843 5843
5693 5692 5691 5690 5688 5687 5686 5687 5689 5690 5695 5696 5698 5701 5706 5710 5715 5722 5728 5734 5740 5746 5752 5758 5763 5769 5774 5779 5784 5789 5793 5798 5802 5806 5810 5813 5817 5821 5824 5827 5829 5831 5833 5835 5836 5837 5838 5838 5839
5679 5678 5676 5674 5672 5670 5669 5670 5672 5675 5678 5679 5681 5685 5689 5695 5700 5706 5713 5720 5727 5734 5740 5747 5753 5758 5764 5770 5775 5780 5785 5790 5794 5798 5802 5806 5810 5814 5818 5821 5823 5826 5828 5830 5831 5832 5833 5834 5834
5666 5664 5662 5659 5657 5655 5653 5654 5654 5659 5661 5661 5664 5668 5673 5678 5684 5691 5698 5705 5713 5721 5728 5735 5742 5748 5754 5760 5766 5771 5776 5781 5786 5791 5795 5799 5803 5807 5811 5814 5818 5820 5822 5824 5826 5827 5828 5829 5830
5653 5650 5648 5645 5642 5640 5637 5638 5641 5644 5644 5645 5649 5652 5657 5662 5669 5676 5684 5691 5699 5707 5715 5723 5730 5737 5744 5750 5756 5762 5767 5773 5778 5783 5787 5792 5796 5800 5804 5808 5811 5814 5817 5819 5820 5822 5823 5824 5825
5639 5636 5634 5633 5628 5625 5624 5625 5629 5628 5628 5630 5634 5637 5642 5648 5654 5661 5669 5677 5686 5694 5702 5711 5719 5727 5734 5740 5746 5753 5758 5764 5770 5775 5780 5784 5789 5793 5797 5801 5805 5808 5811 5813 5815 5817 5818 5819 5820
5627 5623 5621 5620 5616 5612 5610 5612 5616 5614 5613 5616 5619 5623 5628 5634 5640 5648 5655 5663 5672 5681 5690 5699 5708 5716 5724 5730 5737 5743 5749 5755 5761 5767 5772 5777 5781 5786 5790 5795 5798 5802 5805 5807 5809 5811 5813 5814 5815
5615 5612 5609 5607 5604 5600 5598 5600 5602 5601 5601 5603 5606 5610 5615 5621 5628 5634 5642 5650 5659 5668 5678 5687 5696 5705 5713 5720 5727 5734 5740 5747 5753 5758 5764 5769 5774 5779 5783 5788 5791 5795 5798 5801 5804 5806 5807 5808 5809
5604 5600 5597 5596 5592 5588 5588 5588 5590 5590 5590 5592 5594 5598 5603 5609 5615 5621 5628 5637 5646 5656 5665 5675 5685 5693 5702 5710 5717 5724 5732 5738 5744 5750 5756 5761 5766 5771 5776 5780 5784 5788 5792 5795 5797 5799 5801 5802 5803
5593 5589 5587 5585 5582 5578 5577 5577 5579 5579 5579 5581 5583 5586 5591 5597 5602 5609 5617 5625 5635 5644 5654 5664 5673 5683 5692 5701 5708 5715 5723 5729 5735 5741 5747 5752 5758 5763 5768 5773 5777 5781 5785 5788 5791 5793 5795 5796 5797
5584 5580 5577 5574 5572 5569 5566 5567 5570 5570 5569 5570 5573 5576 5580 5585 5591 5598 5606 5614 5623 5633 5643 5653 5663 5673 5682 5690 5698 5705 5712 5719 5726 5732 5739 5745 5750 5756 5761 5766 5770 5774 5778 5781 5784 5786 5789 5790 5791
5576 5572 5568 5564 5561 5560 5558 5555 5561 5560 5560 5561 5563 5565 5570 5575 5581 5588 5595 5603 5613 5623 5633 5643 5653 5662 5672 5680 5688 5696 5704 5711 5719 5725 5731 5736 5742 5748 5753 5758 5763 5767 5771 5774 5777 5779 5781 5783 5784
5566 5563 5560 5556 5553 5551 5550 5546 5551 5551 5551 5553 5555 5557 5561 5566 5572 5578 5585 5593 5602 5612 5621 5632 5641 5652 5661 5670 5678 5686 5695 5702 5709 5716 5722 5728 5734 5740 5745 5750 5755 5759 5764 5767 5770 5772 5774 5776 5778
5558 5555 5551 5548 5545 5543 5544 5540 5541 5543 5544 5545 5546 5548 5552 5556 5562 5568 5575 5583 5591 5601 5611 5621 5631 5641 5651 5660 5669 5677 5685 5693 5700 5707 5713 5720 5726 5732 5737 5743 5747 5752 5756 5760 5763 5765 5767 5769 5770
5551 5547 5543 5539 5537 5536 5535 5532 5534 5535 5535 5536 5538 5540 5543 5547 5552 5559 5565 5573 5581 5591 5601 5611 5621 5631 5641 5650 5659 5668 5676 5683 5691 5698 5705 5711 5718 5724 5730 5735 5739 5744 5748 5752 5755 5758 5760 5762 5763
5544 5541 5538 5533 5530 5528 5525 5524 5527 5527 5527 5528 5529 5531 5534 5539 5544 5550 5557 5564 5573 5582 5591 5601 5611 5622 5631 5640 5650 5659 5666 5674 5682 5689 5696 5703 5709 5716 5721 5726 5731 5736 5740 5744 5747 5750 5752 5754 5756
5536 5533 5530 5526 5522 5520 5518 5518 5519 5520 5520 5520 5521 5523 5526 5531 5536 5542 5549 5555 5564 5572 5582 5591 5602 5612 5622 5631 5640 5648 5656 5665 5673 5680 5687 5694 5700 5706 5712 5718 5722 5727 5732 5736 5739 5742 5744 5747 5748
5529 5526 5522 5518 5515 5512 5511 5511 5512 5512 5513 5513 5514 5516 5519 5523 5528 5534 5540 5547 5555 5563 5572 5582 5592 5602 5612 5621 5630 5639 5647 5655 5663 5670 5678 5685 5692 5698 5703 5709 5714 5719 5723 5727 5731 5734 5736 5739 5741
5522 5519 5514 5511 5508 5506 5503 5507 5506 5506 5506 5506 5508 5509 5512 5516 5520 5526 5532 5538 5546 5554 5562 5572 5582 5592 5601 5610 5620 5629 5638 5646 5653 5661 5669 5676 5683 5689 5695 5700 5705 5710 5715 5719 5723 5726 5728 5731 5733
5513 5511 5507 5505 5501 5498 5495 5500 5500 5499 5498 5499 5500 5502 5504 5508 5512 5518 5523 5529 5537 5545 5553 5563 5572 5582 5591 5600 5609 5618 5627 5636 5644 5652 5660 5667 5674 5680 5686 5691 5697 5702 5707 5711 5715 5718 5721 5723 5725